Time,TemperatureF,DewpointF,PressureIn,WindDirection,WindDirectionDegrees,WindSpeedMPH,WindSpeedGustMPH,Humidity,HourlyPrecipIn,Conditions,Clouds,dailyrainin,SoftwareType,DateUTC
2013-04-17 00:03:00,53.4,37.1,30.14,SW,225,0.0,0.0,54,0.00,,,0.00,WUHU216HW,2013-04-17 07:03:00,
2013-04-17 00:08:00,53.2,37.4,30.14,SW,225,0.0,0.0,55,0.00,,,0.00,WUHU216HW,2013-04-17 07:08:00,
2013-04-17 00:13:00,53.0,37.2,30.14,SW,225,0.0,0.0,55,0.00,,,0.00,WUHU216HW,2013-04-17 07:13:00,
2013-04-17 00:18:00,52.8,37.0,30.15,SW,225,0.0,0.0,55,0.00,,,0.00,WUHU216HW,2013-04-17 07:18:00,
2013-04-17 00:24:00,52.8,37.5,30.14,SW,225,0.0,0.0,56,0.00,,,0.00,WUHU216HW,2013-04-17 07:24:00,
2013-04-17 00:29:00,52.8,37.5,30.14,WSW,248,0.0,0.0,56,0.00,,,0.00,WUHU216HW,2013-04-17 07:29:00,
2013-04-17 00:34:00,52.7,37.3,30.14,SW,225,0.0,0.0,56,0.00,,,0.00,WUHU216HW,2013-04-17 07:34:00,
2013-04-17 00:39:00,52.5,37.1,30.15,SW,225,0.0,0.0,56,0.00,,,0.00,WUHU216HW,2013-04-17 07:39:00,
2013-04-17 00:44:00,52.3,37.0,30.15,SW,225,0.0,0.0,56,0.00,,,0.00,WUHU216HW,2013-04-17 07:44:00,
2013-04-17 00:49:00,52.1,36.8,30.15,SW,225,0.0,0.0,56,0.00,,,0.00,WUHU216HW,2013-04-17 07:49:00,
2013-04-17 00:54:00,52.1,36.8,30.15,SW,225,0.0,0.0,56,0.00,,,0.00,WUHU216HW,2013-04-17 07:54:00,
2013-04-17 00:59:00,51.9,36.6,30.15,SW,225,0.0,0.0,56,0.00,,,0.00,WUHU216HW,2013-04-17 07:59:00,
2013-04-17 01:04:00,51.6,36.3,30.15,SSW,203,0.0,0.0,56,0.00,,,0.00,WUHU216HW,2013-04-17 08:04:00,
2013-04-17 01:09:00,51.6,36.7,30.15,South,180,0.0,0.0,57,0.00,,,0.00,WUHU216HW,2013-04-17 08:09:00,
2013-04-17 01:14:00,51.6,36.7,30.15,South,180,0.0,0.0,57,0.00,,,0.00,WUHU216HW,2013-04-17 08:14:00,
2013-04-17 01:19:00,51.6,36.7,30.16,South,180,0.0,0.0,57,0.00,,,0.00,WUHU216HW,2013-04-17 08:19:00,
2013-04-17 01:24:00,51.4,36.6,30.16,South,180,0.0,0.0,57,0.00,,,0.00,WUHU216HW,2013-04-17 08:24:00,
2013-04-17 01:29:00,51.4,36.6,30.16,South,180,0.0,0.0,57,0.00,,,0.00,WUHU216HW,2013-04-17 08:29:00,
2013-04-17 01:34:00,51.4,36.6,30.15,WNW,293,0.0,0.0,57,0.00,,,0.00,WUHU216HW,2013-04-17 08:34:00,
2013-04-17 01:40:00,51.2,36.4,30.16,North,0,0.0,0.0,57,0.00,,,0.00,WUHU216HW,2013-04-17 08:40:00,
2013-04-17 01:45:00,51.0,36.3,30.16,WSW,248,0.0,0.0,57,0.00,,,0.00,WUHU216HW,2013-04-17 08:45:00,
2013-04-17 01:50:00,51.0,36.3,30.16,WSW,248,0.0,0.0,57,0.00,,,0.00,WUHU216HW,2013-04-17 08:50:00,
2013-04-17 01:55:00,51.0,35.8,30.16,WNW,293,0.0,0.0,56,0.00,,,0.00,WUHU216HW,2013-04-17 08:55:00,
2013-04-17 02:00:00,51.0,35.4,30.15,WNW,293,0.0,0.0,55,0.00,,,0.00,WUHU216HW,2013-04-17 09:00:00,
2013-04-17 02:05:00,51.2,35.5,30.15,WSW,248,0.0,0.0,55,0.00,,,0.00,WUHU216HW,2013-04-17 09:05:00,
2013-04-17 02:10:00,51.6,34.9,30.15,WNW,293,0.0,0.6,53,0.00,,,0.00,WUHU216HW,2013-04-17 09:10:00,
2013-04-17 02:15:00,51.8,34.7,30.15,West,270,0.0,0.6,52,0.00,,,0.00,WUHU216HW,2013-04-17 09:15:00,
2013-04-17 02:20:00,51.9,34.8,30.15,North,0,0.0,0.0,52,0.00,,,0.00,WUHU216HW,2013-04-17 09:20:00,
2013-04-17 02:25:00,52.1,34.5,30.15,NW,315,0.0,0.0,51,0.00,,,0.00,WUHU216HW,2013-04-17 09:25:00,
2013-04-17 02:30:00,52.3,34.7,30.15,West,270,0.0,0.0,51,0.00,,,0.00,WUHU216HW,2013-04-17 09:30:00,
2013-04-17 02:35:00,52.5,34.4,30.15,West,270,0.0,0.0,50,0.00,,,0.00,WUHU216HW,2013-04-17 09:35:00,
2013-04-17 02:40:00,52.5,34.4,30.15,NE,45,0.0,0.0,50,0.00,,,0.00,WUHU216HW,2013-04-17 09:40:00,
2013-04-17 02:46:00,52.7,34.0,30.15,East,90,0.0,0.0,49,0.00,,,0.00,WUHU216HW,2013-04-17 09:46:00,
2013-04-17 02:51:00,52.7,34.0,30.15,WNW,293,0.0,0.0,49,0.00,,,0.00,WUHU216HW,2013-04-17 09:51:00,
2013-04-17 02:56:00,52.7,34.0,30.15,East,90,0.0,0.0,49,0.00,,,0.00,WUHU216HW,2013-04-17 09:56:00,
2013-04-17 03:01:00,52.7,33.4,30.15,ESE,113,0.0,0.0,48,0.00,,,0.00,WUHU216HW,2013-04-17 10:01:00,
2013-04-17 03:06:00,52.8,33.6,30.15,SSW,203,0.0,0.0,48,0.00,,,0.00,WUHU216HW,2013-04-17 10:06:00,
2013-04-17 03:11:00,52.8,33.6,30.15,South,180,0.0,0.0,48,0.00,,,0.00,WUHU216HW,2013-04-17 10:11:00,
2013-04-17 03:16:00,52.8,33.6,30.15,WNW,293,0.0,0.0,48,0.00,,,0.00,WUHU216HW,2013-04-17 10:16:00,
2013-04-17 03:21:00,52.7,33.4,30.15,SSW,203,0.0,0.0,48,0.00,,,0.00,WUHU216HW,2013-04-17 10:21:00,
2013-04-17 03:26:00,52.7,33.4,30.15,West,270,0.0,0.0,48,0.00,,,0.00,WUHU216HW,2013-04-17 10:26:00,
2013-04-17 03:32:00,52.5,33.8,30.14,South,180,0.0,0.0,49,0.00,,,0.00,WUHU216HW,2013-04-17 10:32:00,
2013-04-17 03:37:00,52.5,33.8,30.15,WNW,293,0.0,0.0,49,0.00,,,0.00,WUHU216HW,2013-04-17 10:37:00,
2013-04-17 03:42:00,52.5,33.8,30.15,SE,135,0.0,0.0,49,0.00,,,0.00,WUHU216HW,2013-04-17 10:42:00,
2013-04-17 03:47:00,52.5,33.8,30.15,NNW,338,1.5,1.5,49,0.00,,,0.00,WUHU216HW,2013-04-17 10:47:00,
2013-04-17 03:52:00,52.5,33.8,30.15,ESE,113,1.3,1.5,49,0.00,,,0.00,WUHU216HW,2013-04-17 10:52:00,
2013-04-17 03:57:00,52.5,33.8,30.15,West,270,0.0,1.5,49,0.00,,,0.00,WUHU216HW,2013-04-17 10:57:00,
2013-04-17 04:02:00,52.5,33.8,30.15,WNW,293,0.0,0.0,49,0.00,,,0.00,WUHU216HW,2013-04-17 11:02:00,
2013-04-17 04:07:00,52.7,34.0,30.15,NW,315,0.0,0.0,49,0.00,,,0.00,WUHU216HW,2013-04-17 11:07:00,
2013-04-17 04:12:00,52.7,34.0,30.15,SW,225,0.0,0.0,49,0.00,,,0.00,WUHU216HW,2013-04-17 11:12:00,
2013-04-17 04:17:00,52.7,34.0,30.15,SW,225,0.0,0.0,49,0.00,,,0.00,WUHU216HW,2013-04-17 11:17:00,
2013-04-17 04:22:00,52.5,33.8,30.15,West,270,0.0,0.0,49,0.00,,,0.00,WUHU216HW,2013-04-17 11:22:00,
2013-04-17 04:27:00,52.5,33.8,30.15,SSW,203,0.0,0.0,49,0.00,,,0.00,WUHU216HW,2013-04-17 11:27:00,
2013-04-17 04:32:00,52.5,33.8,30.15,SSW,203,0.0,0.0,49,0.00,,,0.00,WUHU216HW,2013-04-17 11:32:00,
2013-04-17 04:38:00,52.5,33.3,30.15,WNW,293,0.0,0.0,48,0.00,,,0.00,WUHU216HW,2013-04-17 11:38:00,
2013-04-17 04:43:00,52.7,33.4,30.15,West,270,0.0,0.0,48,0.00,,,0.00,WUHU216HW,2013-04-17 11:43:00,
2013-04-17 04:48:00,52.7,33.4,30.15,WSW,248,0.0,2.2,48,0.00,,,0.00,WUHU216HW,2013-04-17 11:48:00,
2013-04-17 04:53:00,52.5,33.3,30.16,South,180,0.0,2.2,48,0.00,,,0.00,WUHU216HW,2013-04-17 11:53:00,
2013-04-17 04:58:00,52.5,33.8,30.16,SSE,158,0.0,0.0,49,0.00,,,0.00,WUHU216HW,2013-04-17 11:58:00,
2013-04-17 05:03:00,52.5,33.8,30.16,SSW,203,0.0,0.0,49,0.00,,,0.00,WUHU216HW,2013-04-17 12:03:00,
2013-04-17 05:08:00,52.3,33.7,30.16,North,0,0.6,0.6,49,0.00,,,0.00,WUHU216HW,2013-04-17 12:08:00,
2013-04-17 05:13:00,52.5,33.8,30.16,East,90,0.0,0.6,49,0.00,,,0.00,WUHU216HW,2013-04-17 12:13:00,
2013-04-17 05:18:00,52.5,33.8,30.16,West,270,0.0,0.6,49,0.00,,,0.00,WUHU216HW,2013-04-17 12:18:00,
2013-04-17 05:23:00,52.5,33.8,30.16,ENE,68,0.0,0.0,49,0.00,,,0.00,WUHU216HW,2013-04-17 12:23:00,
2013-04-17 05:28:00,52.3,33.7,30.16,NW,315,0.0,0.0,49,0.00,,,0.00,WUHU216HW,2013-04-17 12:28:00,
2013-04-17 05:33:00,52.3,33.7,30.17,SSW,203,0.0,0.0,49,0.00,,,0.00,WUHU216HW,2013-04-17 12:33:00,
2013-04-17 05:38:00,52.3,34.2,30.17,NW,315,0.0,0.0,50,0.00,,,0.00,WUHU216HW,2013-04-17 12:38:00,
2013-04-17 05:43:00,52.1,33.5,30.17,West,270,0.0,0.0,49,0.00,,,0.00,WUHU216HW,2013-04-17 12:43:00,
2013-04-17 05:48:00,52.1,33.5,30.17,SW,225,0.0,0.0,49,0.00,,,0.00,WUHU216HW,2013-04-17 12:48:00,
2013-04-17 05:53:00,51.9,33.9,30.17,SSW,203,0.0,0.0,50,0.00,,,0.00,WUHU216HW,2013-04-17 12:53:00,
2013-04-17 05:58:00,51.8,33.8,30.18,WSW,248,0.0,1.7,50,0.00,,,0.00,WUHU216HW,2013-04-17 12:58:00,
2013-04-17 06:03:00,51.8,33.8,30.18,NW,315,0.0,1.7,50,0.00,,,0.00,WUHU216HW,2013-04-17 13:03:00,
2013-04-17 06:09:00,51.8,33.8,30.18,SSW,203,0.0,0.0,50,0.00,,,0.00,WUHU216HW,2013-04-17 13:09:00,
2013-04-17 06:14:00,51.8,33.8,30.18,South,180,0.0,0.0,50,0.00,,,0.00,WUHU216HW,2013-04-17 13:14:00,
2013-04-17 06:19:00,51.8,33.8,30.18,South,180,0.0,0.0,50,0.00,,,0.00,WUHU216HW,2013-04-17 13:19:00,
2013-04-17 06:24:00,51.6,33.6,30.19,SSW,203,1.7,1.7,50,0.00,,,0.00,WUHU216HW,2013-04-17 13:24:00,
2013-04-17 06:29:00,51.6,33.0,30.19,NNE,23,0.0,1.7,49,0.00,,,0.00,WUHU216HW,2013-04-17 13:29:00,
2013-04-17 06:34:00,51.6,33.0,30.19,WNW,293,0.0,0.0,49,0.00,,,0.00,WUHU216HW,2013-04-17 13:34:00,
2013-04-17 06:39:00,51.8,33.2,30.19,WNW,293,0.0,0.0,49,0.00,,,0.00,WUHU216HW,2013-04-17 13:39:00,
2013-04-17 06:44:00,51.8,33.2,30.19,South,180,0.0,0.0,49,0.00,,,0.00,WUHU216HW,2013-04-17 13:44:00,
2013-04-17 06:49:00,51.9,32.8,30.19,West,270,0.0,0.0,48,0.00,,,0.00,WUHU216HW,2013-04-17 13:49:00,
2013-04-17 06:54:00,51.9,32.8,30.20,NE,45,0.0,0.0,48,0.00,,,0.00,WUHU216HW,2013-04-17 13:54:00,
2013-04-17 06:59:00,51.9,32.8,30.20,NE,45,0.0,0.0,48,0.00,,,0.00,WUHU216HW,2013-04-17 13:59:00,
2013-04-17 07:04:00,51.9,32.8,30.20,WNW,293,0.0,0.0,48,0.00,,,0.00,WUHU216HW,2013-04-17 14:04:00,
2013-04-17 07:09:00,51.9,32.8,30.21,WNW,293,0.0,0.0,48,0.00,,,0.00,WUHU216HW,2013-04-17 14:09:00,
2013-04-17 07:14:00,51.9,32.8,30.21,WSW,248,0.0,0.0,48,0.00,,,0.00,WUHU216HW,2013-04-17 14:14:00,
2013-04-17 07:19:00,51.8,32.6,30.21,WSW,248,0.0,0.0,48,0.00,,,0.00,WUHU216HW,2013-04-17 14:19:00,
2013-04-17 07:24:00,51.8,33.2,30.21,WSW,248,0.0,0.0,49,0.00,,,0.00,WUHU216HW,2013-04-17 14:24:00,
2013-04-17 07:29:00,51.8,33.0,30.22,West,270,0.0,0.0,49,0.00,,,0.00,WUHU216HW,2013-04-17 14:29:00,
2013-04-17 07:34:00,51.6,33.0,30.22,East,90,0.0,0.0,49,0.00,,,0.00,WUHU216HW,2013-04-17 14:34:00,
2013-04-17 07:39:00,51.6,32.5,30.22,ESE,113,1.5,1.5,48,0.00,,,0.00,WUHU216HW,2013-04-17 14:39:00,
2013-04-17 07:44:00,51.9,32.8,30.22,WNW,293,0.0,1.5,48,0.00,,,0.00,WUHU216HW,2013-04-17 14:44:00,
2013-04-17 07:49:00,52.1,32.4,30.22,WSW,248,0.0,0.0,47,0.00,,,0.00,WUHU216HW,2013-04-17 14:49:00,
2013-04-17 07:54:00,52.3,32.6,30.22,WNW,293,1.5,1.5,47,0.00,,,0.00,WUHU216HW,2013-04-17 14:54:00,
2013-04-17 08:00:00,52.5,32.2,30.23,West,270,0.0,1.5,46,0.00,,,0.00,WUHU216HW,2013-04-17 15:00:00,
2013-04-17 08:05:00,52.7,32.3,30.23,West,270,0.0,2.2,46,0.00,,,0.00,WUHU216HW,2013-04-17 15:05:00,
2013-04-17 08:10:00,52.8,32.5,30.23,SW,225,0.0,2.2,46,0.00,,,0.00,WUHU216HW,2013-04-17 15:10:00,
2013-04-17 08:15:00,53.2,32.8,30.23,SSE,158,0.0,0.0,46,0.00,,,0.00,WUHU216HW,2013-04-17 15:15:00,
2013-04-17 08:20:00,53.2,32.3,30.23,WNW,293,0.6,0.6,45,0.00,,,0.00,WUHU216HW,2013-04-17 15:20:00,
2013-04-17 08:25:00,53.6,32.6,30.24,ENE,68,0.0,1.7,45,0.00,,,0.00,WUHU216HW,2013-04-17 15:25:00,
2013-04-17 08:30:00,53.7,32.7,30.24,ESE,113,0.0,1.7,45,0.00,,,0.00,WUHU216HW,2013-04-17 15:30:00,
2013-04-17 08:35:00,53.9,32.3,30.24,NNE,23,0.0,0.0,44,0.00,,,0.00,WUHU216HW,2013-04-17 15:35:00,
2013-04-17 08:40:00,54.3,32.7,30.24,NNE,23,0.0,0.6,44,0.00,,,0.00,WUHU216HW,2013-04-17 15:40:00,
2013-04-17 08:45:00,54.3,32.7,30.24,East,90,0.0,0.6,44,0.00,,,0.00,WUHU216HW,2013-04-17 15:45:00,
2013-04-17 08:50:00,54.6,33.0,30.24,ENE,68,0.0,0.0,44,0.00,,,0.00,WUHU216HW,2013-04-17 15:50:00,
2013-04-17 08:55:00,55.0,33.9,30.24,WNW,293,0.0,0.0,44,0.00,,,0.00,WUHU216HW,2013-04-17 15:55:00,
2013-04-17 09:00:00,55.2,34.0,30.24,WNW,293,0.0,0.0,45,0.00,,,0.00,WUHU216HW,2013-04-17 16:00:00,
2013-04-17 09:05:00,55.2,34.0,30.24,North,0,0.0,0.0,45,0.00,,,0.00,WUHU216HW,2013-04-17 16:05:00,
2013-04-17 09:10:00,55.7,34.0,30.24,South,180,3.5,3.5,44,0.00,,,0.00,WUHU216HW,2013-04-17 16:10:00,
2013-04-17 09:15:00,55.9,33.6,30.24,WSW,248,3.8,3.8,43,0.00,,,0.00,WUHU216HW,2013-04-17 16:15:00,
2013-04-17 09:20:00,56.1,33.8,30.24,WNW,293,0.0,3.8,43,0.00,,,0.00,WUHU216HW,2013-04-17 16:20:00,
2013-04-17 09:25:00,56.4,33.5,30.24,WNW,293,0.0,3.8,42,0.00,,,0.00,WUHU216HW,2013-04-17 16:25:00,
2013-04-17 09:30:00,56.4,33.5,30.24,NNE,23,0.0,0.0,42,0.00,,,0.00,WUHU216HW,2013-04-17 16:30:00,
2013-04-17 09:36:00,56.8,33.8,30.24,NW,315,0.0,0.0,42,0.00,,,0.00,WUHU216HW,2013-04-17 16:36:00,
2013-04-17 09:41:00,57.0,34.0,30.24,NNW,338,0.0,0.0,42,0.00,,,0.00,WUHU216HW,2013-04-17 16:41:00,
2013-04-17 09:46:00,57.5,33.9,30.24,WSW,248,0.0,0.0,41,0.00,,,0.00,WUHU216HW,2013-04-17 16:46:00,
2013-04-17 09:51:00,57.9,34.3,30.24,NW,315,0.8,3.3,41,0.00,,,0.00,WUHU216HW,2013-04-17 16:51:00,
2013-04-17 09:56:00,58.1,34.4,30.24,SSE,158,0.0,3.3,41,0.00,,,0.00,WUHU216HW,2013-04-17 16:56:00,
2013-04-17 10:01:00,58.4,34.2,30.24,ENE,68,0.0,2.9,41,0.00,,,0.00,WUHU216HW,2013-04-17 17:01:00,
2013-04-17 10:06:00,58.6,34.3,30.24,West,270,0.0,2.9,40,0.00,,,0.00,WUHU216HW,2013-04-17 17:06:00,
2013-04-17 10:12:00,58.8,34.5,30.24,SSW,203,0.0,0.0,40,0.00,,,0.00,WUHU216HW,2013-04-17 17:12:00,
2013-04-17 10:17:00,58.8,34.5,30.25,ENE,68,2.9,2.9,40,0.00,,,0.00,WUHU216HW,2013-04-17 17:17:00,
2013-04-17 10:22:00,59.3,34.3,30.24,West,270,3.8,3.8,39,0.00,,,0.00,WUHU216HW,2013-04-17 17:22:00,
2013-04-17 10:27:00,59.7,34.6,30.25,North,0,2.0,3.8,39,0.00,,,0.00,WUHU216HW,2013-04-17 17:27:00,
2013-04-17 10:32:00,60.0,34.2,30.24,WNW,293,1.5,2.0,38,0.00,,,0.00,WUHU216HW,2013-04-17 17:32:00,
2013-04-17 10:37:00,60.4,34.5,30.25,NW,315,0.6,4.2,38,0.00,,,0.00,WUHU216HW,2013-04-17 17:37:00,
2013-04-17 10:42:00,60.6,33.9,30.24,WNW,293,0.0,4.2,37,0.00,,,0.00,WUHU216HW,2013-04-17 17:42:00,
2013-04-17 10:47:00,60.9,33.6,30.24,SW,225,1.3,1.3,36,0.00,,,0.00,WUHU216HW,2013-04-17 17:47:00,
2013-04-17 10:52:00,61.3,33.9,30.24,NNW,338,0.0,1.3,36,0.00,,,0.00,WUHU216HW,2013-04-17 17:52:00,
2013-04-17 10:57:00,61.5,34.0,30.24,WNW,293,2.0,2.0,36,0.00,,,0.00,WUHU216HW,2013-04-17 17:57:00,
2013-04-17 11:02:00,61.7,34.2,30.25,SW,225,0.0,2.0,36,0.00,,,0.00,WUHU216HW,2013-04-17 18:02:00,
2013-04-17 11:07:00,62.0,34.5,30.25,South,180,0.0,2.0,36,0.00,,,0.00,WUHU216HW,2013-04-17 18:07:00,
2013-04-17 11:12:00,62.6,35.0,30.25,SSW,203,0.4,3.1,36,0.00,,,0.00,WUHU216HW,2013-04-17 18:12:00,
2013-04-17 11:18:00,62.7,34.5,30.25,WSW,248,1.3,3.1,35,0.00,,,0.00,WUHU216HW,2013-04-17 18:18:00,
2013-04-17 11:23:00,63.1,34.8,30.25,SSE,158,0.4,1.5,35,0.00,,,0.00,WUHU216HW,2013-04-17 18:23:00,
2013-04-17 11:28:00,63.3,33.5,30.25,NW,315,0.0,1.7,33,0.00,,,0.00,WUHU216HW,2013-04-17 18:28:00,
2013-04-17 11:33:00,63.5,33.7,30.25,NW,315,0.4,1.7,33,0.00,,,0.00,WUHU216HW,2013-04-17 18:33:00,
2013-04-17 11:38:00,63.6,33.8,30.25,North,0,2.6,2.6,33,0.00,,,0.00,WUHU216HW,2013-04-17 18:38:00,
2013-04-17 11:43:00,64.0,34.1,30.25,ESE,113,0.8,2.6,33,0.00,,,0.00,WUHU216HW,2013-04-17 18:43:00,
2013-04-17 11:48:00,64.2,34.3,30.25,East,90,0.0,2.0,33,0.00,,,0.00,WUHU216HW,2013-04-17 18:48:00,
2013-04-17 11:53:00,64.7,34.1,30.24,NW,315,0.0,1.1,32,0.00,,,0.00,WUHU216HW,2013-04-17 18:53:00,
2013-04-17 11:58:00,64.7,34.1,30.24,West,270,0.0,3.5,32,0.00,,,0.00,WUHU216HW,2013-04-17 18:58:00,
2013-04-17 12:03:00,65.1,33.7,30.24,West,270,1.1,3.5,31,0.00,,,0.00,WUHU216HW,2013-04-17 19:03:00,
2013-04-17 12:08:00,65.1,34.4,30.24,SE,135,0.0,1.1,32,0.00,,,0.00,WUHU216HW,2013-04-17 19:08:00,
2013-04-17 12:13:00,65.4,34.0,30.24,NNE,23,2.4,2.4,31,0.00,,,0.00,WUHU216HW,2013-04-17 19:13:00,
2013-04-17 12:18:00,66.0,34.3,30.24,North,0,0.8,3.8,31,0.00,,,0.00,WUHU216HW,2013-04-17 19:18:00,
2013-04-17 12:23:00,66.0,33.8,30.24,SSE,158,1.5,3.8,30,0.00,,,0.00,WUHU216HW,2013-04-17 19:23:00,
2013-04-17 12:28:00,66.0,33.8,30.24,SE,135,0.0,1.5,30,0.00,,,0.00,WUHU216HW,2013-04-17 19:28:00,
2013-04-17 12:33:00,66.2,33.9,30.24,North,0,1.3,1.5,30,0.00,,,0.00,WUHU216HW,2013-04-17 19:33:00,
2013-04-17 12:38:00,66.5,34.2,30.24,NW,315,1.3,1.3,30,0.00,,,0.00,WUHU216HW,2013-04-17 19:38:00,
2013-04-17 12:43:00,66.7,33.4,30.24,West,270,2.0,2.9,29,0.00,,,0.00,WUHU216HW,2013-04-17 19:43:00,
2013-04-17 12:48:00,66.7,34.4,30.24,NNW,338,0.0,2.9,30,0.00,,,0.00,WUHU216HW,2013-04-17 19:48:00,
2013-04-17 12:53:00,66.9,34.5,30.24,NNE,23,0.0,0.8,30,0.00,,,0.00,WUHU216HW,2013-04-17 19:53:00,
2013-04-17 12:59:00,67.1,34.7,30.23,NNW,338,0.0,0.0,30,0.00,,,0.00,WUHU216HW,2013-04-17 19:59:00,
2013-04-17 13:04:00,67.6,33.9,30.23,NNE,23,0.0,1.1,29,0.00,,,0.00,WUHU216HW,2013-04-17 20:04:00,
2013-04-17 13:08:00,67.8,35.2,30.23,South,180,0.0,1.7,30,0.00,,,0.00,WUHU216HW,2013-04-17 20:08:00,
2013-04-17 13:14:00,67.8,33.2,30.23,SSE,158,0.0,3.5,28,0.00,,,0.00,WUHU216HW,2013-04-17 20:14:00,
2013-04-17 13:19:00,68.0,34.5,30.23,WSW,248,0.0,3.5,28,0.00,,,0.00,WUHU216HW,2013-04-17 20:19:00,
2013-04-17 13:24:00,68.3,34.7,30.23,WSW,248,1.7,1.7,29,0.00,,,0.00,WUHU216HW,2013-04-17 20:24:00,
2013-04-17 13:29:00,68.7,35.0,30.22,NNE,23,1.1,2.2,29,0.00,,,0.00,WUHU216HW,2013-04-17 20:29:00,
2013-04-17 13:34:00,68.9,34.2,30.22,NW,315,4.0,4.0,28,0.00,,,0.00,WUHU216HW,2013-04-17 20:34:00,
2013-04-17 13:39:00,68.7,33.0,30.22,SW,225,1.3,4.0,27,0.00,,,0.00,WUHU216HW,2013-04-17 20:39:00,
2013-04-17 13:44:00,68.9,33.2,30.22,NW,315,3.3,3.3,27,0.00,,,0.00,WUHU216HW,2013-04-17 20:44:00,
2013-04-17 13:49:00,69.0,33.3,30.22,NW,315,0.0,3.3,27,0.00,,,0.00,WUHU216HW,2013-04-17 20:49:00,
2013-04-17 13:54:00,69.4,33.6,30.22,ENE,68,0.0,3.3,27,0.00,,,0.00,WUHU216HW,2013-04-17 20:54:00,
2013-04-17 13:59:00,69.6,33.8,30.22,SE,135,1.7,1.7,27,0.00,,,0.00,WUHU216HW,2013-04-17 20:59:00,
2013-04-17 14:04:00,69.9,33.1,30.22,SW,225,1.3,2.0,26,0.00,,,0.00,WUHU216HW,2013-04-17 21:04:00,
2013-04-17 14:09:00,70.1,34.3,30.22,WNW,293,0.0,2.0,27,0.00,,,0.00,WUHU216HW,2013-04-17 21:09:00,
2013-04-17 14:14:00,70.3,33.4,30.22,NW,315,0.0,3.8,26,0.00,,,0.00,WUHU216HW,2013-04-17 21:14:00,
2013-04-17 14:19:00,70.5,33.6,30.21,NNE,23,0.0,3.8,26,0.00,,,0.00,WUHU216HW,2013-04-17 21:19:00,
2013-04-17 14:24:00,70.7,33.7,30.21,NE,45,0.0,2.2,26,0.00,,,0.00,WUHU216HW,2013-04-17 21:24:00,
2013-04-17 14:29:00,71.2,34.2,30.21,SW,225,0.0,2.2,26,0.00,,,0.00,WUHU216HW,2013-04-17 21:29:00,
2013-04-17 14:35:00,71.2,33.2,30.21,WSW,248,0.0,2.2,25,0.00,,,0.00,WUHU216HW,2013-04-17 21:35:00,
2013-04-17 14:40:00,71.4,33.3,30.21,North,0,1.7,2.9,25,0.00,,,0.00,WUHU216HW,2013-04-17 21:40:00,
2013-04-17 14:45:00,71.6,33.5,30.21,WNW,293,0.0,2.9,25,0.00,,,0.00,WUHU216HW,2013-04-17 21:45:00,
2013-04-17 14:50:00,71.7,33.6,30.20,West,270,0.0,0.0,25,0.00,,,0.00,WUHU216HW,2013-04-17 21:50:00,
2013-04-17 14:55:00,71.7,33.6,30.20,NNW,338,3.3,3.3,25,0.00,,,0.00,WUHU216HW,2013-04-17 21:55:00,
2013-04-17 15:00:00,71.9,32.8,30.20,WNW,293,0.0,3.3,24,0.00,,,0.00,WUHU216HW,2013-04-17 22:00:00,
2013-04-17 15:05:00,72.1,33.9,30.20,NNW,338,0.0,3.3,25,0.00,,,0.00,WUHU216HW,2013-04-17 22:05:00,
2013-04-17 15:10:00,72.3,34.1,30.20,WNW,293,0.0,1.5,25,0.00,,,0.00,WUHU216HW,2013-04-17 22:10:00,
2013-04-17 15:15:00,72.5,33.2,30.20,NNE,23,0.0,1.3,24,0.00,,,0.00,WUHU216HW,2013-04-17 22:15:00,
2013-04-17 15:20:00,72.6,33.4,30.19,WNW,293,1.3,1.3,24,0.00,,,0.00,WUHU216HW,2013-04-17 22:20:00,
2013-04-17 15:25:00,72.8,33.5,30.19,NNW,338,0.0,1.3,24,0.00,,,0.00,WUHU216HW,2013-04-17 22:25:00,
2013-04-17 15:30:00,73.0,33.7,30.19,WNW,293,0.0,1.3,24,0.00,,,0.00,WUHU216HW,2013-04-17 22:30:00,
2013-04-17 15:35:00,73.0,32.7,30.19,West,270,0.0,0.0,23,0.00,,,0.00,WUHU216HW,2013-04-17 22:35:00,
2013-04-17 15:40:00,73.2,33.8,30.19,North,0,0.0,0.0,24,0.00,,,0.00,WUHU216HW,2013-04-17 22:40:00,
2013-04-17 15:45:00,73.2,33.8,30.19,WNW,293,0.0,0.0,24,0.00,,,0.00,WUHU216HW,2013-04-17 22:45:00,
2013-04-17 15:50:00,73.2,32.8,30.18,WNW,293,1.3,1.3,23,0.00,,,0.00,WUHU216HW,2013-04-17 22:50:00,
2013-04-17 15:55:00,73.0,32.7,30.18,WSW,248,0.0,1.3,23,0.00,,,0.00,WUHU216HW,2013-04-17 22:55:00,
2013-04-17 16:01:00,73.2,32.8,30.18,WNW,293,0.0,1.3,23,0.00,,,0.00,WUHU216HW,2013-04-17 23:01:00,
2013-04-17 16:06:00,73.2,32.8,30.18,SSW,203,3.3,3.3,23,0.00,,,0.00,WUHU216HW,2013-04-17 23:06:00,
2013-04-17 16:11:00,73.2,32.8,30.18,West,270,4.9,4.9,23,0.00,,,0.00,WUHU216HW,2013-04-17 23:11:00,
2013-04-17 16:16:00,73.2,32.8,30.18,SSE,158,0.0,4.9,23,0.00,,,0.00,WUHU216HW,2013-04-17 23:16:00,
2013-04-17 16:21:00,73.4,34.0,30.18,SSW,203,0.0,4.9,24,0.00,,,0.00,WUHU216HW,2013-04-17 23:21:00,
2013-04-17 16:26:00,73.4,35.0,30.18,South,180,0.0,4.9,25,0.00,,,0.00,WUHU216HW,2013-04-17 23:26:00,
2013-04-17 16:32:00,73.4,36.0,30.17,NNW,338,0.0,3.3,26,0.00,,,0.00,WUHU216HW,2013-04-17 23:32:00,
2013-04-17 16:37:00,73.2,34.8,30.17,WNW,293,0.0,1.3,25,0.00,,,0.00,WUHU216HW,2013-04-17 23:37:00,
2013-04-17 16:42:00,73.2,35.9,30.17,WSW,248,0.0,0.0,26,0.00,,,0.00,WUHU216HW,2013-04-17 23:42:00,
2013-04-17 16:47:00,73.0,37.7,30.16,NNW,338,0.0,1.3,28,0.00,,,0.00,WUHU216HW,2013-04-17 23:47:00,
2013-04-17 16:52:00,73.2,37.9,30.17,NW,315,2.0,2.0,28,0.00,,,0.00,WUHU216HW,2013-04-17 23:52:00,
2013-04-17 16:57:00,72.8,37.6,30.17,NW,315,0.0,2.0,28,0.00,,,0.00,WUHU216HW,2013-04-17 23:57:00,
2013-04-17 17:02:00,72.5,37.3,30.17,West,270,0.0,2.0,28,0.00,,,0.00,WUHU216HW,2013-04-18 00:02:00,
2013-04-17 17:07:00,72.3,38.2,30.17,South,180,0.6,0.6,29,0.00,,,0.00,WUHU216HW,2013-04-18 00:07:00,
2013-04-17 17:12:00,72.1,38.0,30.17,WNW,293,0.8,0.8,29,0.00,,,0.00,WUHU216HW,2013-04-18 00:12:00,
2013-04-17 17:17:00,71.9,37.9,30.17,SW,225,0.0,0.8,29,0.00,,,0.00,WUHU216HW,2013-04-18 00:17:00,
2013-04-17 17:22:00,72.1,38.0,30.17,NW,315,0.6,3.5,29,0.00,,,0.00,WUHU216HW,2013-04-18 00:22:00,
2013-04-17 17:27:00,71.9,37.9,30.17,NW,315,1.1,3.5,29,0.00,,,0.00,WUHU216HW,2013-04-18 00:27:00,
2013-04-17 17:32:00,71.7,37.7,30.18,WSW,248,0.0,1.1,29,0.00,,,0.00,WUHU216HW,2013-04-18 00:32:00,
2013-04-17 17:37:00,71.7,37.7,30.18,South,180,0.0,1.1,29,0.00,,,0.00,WUHU216HW,2013-04-18 00:37:00,
2013-04-17 17:43:00,71.4,38.4,30.18,SW,225,0.0,0.0,30,0.00,,,0.00,WUHU216HW,2013-04-18 00:43:00,
2013-04-17 17:48:00,71.6,38.6,30.17,SSW,203,0.0,0.0,30,0.00,,,0.00,WUHU216HW,2013-04-18 00:48:00,
2013-04-17 17:53:00,71.6,38.6,30.17,SE,135,0.0,0.0,30,0.00,,,0.00,WUHU216HW,2013-04-18 00:53:00,
2013-04-17 17:58:00,71.4,38.4,30.18,North,0,1.7,1.7,30,0.00,,,0.00,WUHU216HW,2013-04-18 00:58:00,
2013-04-17 18:03:00,71.2,38.3,30.18,West,270,0.0,1.7,30,0.00,,,0.00,WUHU216HW,2013-04-18 01:03:00,
2013-04-17 18:08:00,71.2,38.3,30.18,ENE,68,0.0,0.0,30,0.00,,,0.00,WUHU216HW,2013-04-18 01:08:00,
2013-04-17 18:13:00,71.2,38.3,30.18,SSW,203,0.0,0.0,30,0.00,,,0.00,WUHU216HW,2013-04-18 01:13:00,
2013-04-17 18:18:00,70.8,38.7,30.18,West,270,0.0,0.0,31,0.00,,,0.00,WUHU216HW,2013-04-18 01:18:00,
2013-04-17 18:23:00,70.8,38.7,30.18,NNE,23,0.0,0.0,31,0.00,,,0.00,WUHU216HW,2013-04-18 01:23:00,
2013-04-17 18:28:00,70.7,38.5,30.18,ENE,68,0.0,0.4,31,0.00,,,0.00,WUHU216HW,2013-04-18 01:28:00,
2013-04-17 18:33:00,70.3,38.2,30.18,North,0,0.0,0.4,31,0.00,,,0.00,WUHU216HW,2013-04-18 01:33:00,
2013-04-17 18:38:00,70.3,39.0,30.18,WNW,293,0.0,0.0,32,0.00,,,0.00,WUHU216HW,2013-04-18 01:38:00,
2013-04-17 18:43:00,70.1,38.8,30.18,ENE,68,0.0,0.0,32,0.00,,,0.00,WUHU216HW,2013-04-18 01:43:00,
2013-04-17 18:48:00,69.9,38.6,30.18,West,270,0.0,0.0,32,0.00,,,0.00,WUHU216HW,2013-04-18 01:48:00,
2013-04-17 18:53:00,69.6,38.3,30.18,NNW,338,0.0,0.0,32,0.00,,,0.00,WUHU216HW,2013-04-18 01:53:00,
2013-04-17 18:58:00,69.6,39.0,30.19,West,270,0.0,0.0,33,0.00,,,0.00,WUHU216HW,2013-04-18 01:58:00,
2013-04-17 19:03:00,69.2,38.7,30.18,WNW,293,0.0,0.0,33,0.00,,,0.00,WUHU216HW,2013-04-18 02:03:00,
2013-04-17 19:08:00,69.0,38.6,30.18,SSE,158,0.0,0.0,33,0.00,,,0.00,WUHU216HW,2013-04-18 02:08:00,
2013-04-17 19:13:00,68.9,38.4,30.18,South,180,0.0,0.0,33,0.00,,,0.00,WUHU216HW,2013-04-18 02:13:00,
2013-04-17 19:18:00,68.5,38.1,30.18,NW,315,0.0,0.0,33,0.00,,,0.00,WUHU216HW,2013-04-18 02:18:00,
2013-04-17 19:23:00,68.1,38.5,30.18,NW,315,0.0,0.0,34,0.00,,,0.00,WUHU216HW,2013-04-18 02:23:00,
2013-04-17 19:29:00,68.0,38.3,30.18,NW,315,0.0,0.0,34,0.00,,,0.00,WUHU216HW,2013-04-18 02:29:00,
2013-04-17 19:34:00,67.8,38.2,30.18,NE,45,0.0,0.0,34,0.00,,,0.00,WUHU216HW,2013-04-18 02:34:00,
2013-04-17 19:39:00,67.6,38.0,30.18,NNW,338,0.0,0.0,34,0.00,,,0.00,WUHU216HW,2013-04-18 02:39:00,
2013-04-17 19:44:00,67.2,38.4,30.18,NNE,23,0.0,0.0,35,0.00,,,0.00,WUHU216HW,2013-04-18 02:44:00,
2013-04-17 19:49:00,67.1,38.3,30.18,NW,315,0.0,0.0,35,0.00,,,0.00,WUHU216HW,2013-04-18 02:49:00,
2013-04-17 19:54:00,66.9,38.1,30.18,NW,315,0.0,0.0,35,0.00,,,0.00,WUHU216HW,2013-04-18 02:54:00,
2013-04-17 19:59:00,66.3,38.4,30.18,NNW,338,0.0,0.0,36,0.00,,,0.00,WUHU216HW,2013-04-18 02:59:00,
2013-04-17 20:04:00,66.2,38.3,30.18,NNW,338,0.0,0.0,36,0.00,,,0.00,WUHU216HW,2013-04-18 03:04:00,
2013-04-17 20:09:00,65.6,38.5,30.18,NNW,338,0.0,0.0,37,0.00,,,0.00,WUHU216HW,2013-04-18 03:09:00,
2013-04-17 20:14:00,65.3,38.2,30.19,NNW,338,0.0,0.0,37,0.00,,,0.00,WUHU216HW,2013-04-18 03:14:00,
2013-04-17 20:19:00,65.1,38.7,30.19,NNW,338,0.0,0.0,38,0.00,,,0.00,WUHU216HW,2013-04-18 03:19:00,
2013-04-17 20:24:00,64.5,38.2,30.19,NNW,338,0.0,0.0,38,0.00,,,0.00,WUHU216HW,2013-04-18 03:24:00,
2013-04-17 20:29:00,64.2,38.6,30.19,NNW,338,0.0,0.0,39,0.00,,,0.00,WUHU216HW,2013-04-18 03:29:00,
2013-04-17 20:34:00,64.0,38.5,30.19,NNW,338,0.0,0.0,39,0.00,,,0.00,WUHU216HW,2013-04-18 03:34:00,
2013-04-17 20:39:00,63.6,38.9,30.19,NNW,338,0.0,0.0,40,0.00,,,0.00,WUHU216HW,2013-04-18 03:39:00,
2013-04-17 20:44:00,64.0,40.3,30.19,NNW,338,0.0,0.0,42,0.00,,,0.00,WUHU216HW,2013-04-18 03:44:00,
2013-04-17 20:49:00,64.0,40.9,30.19,NNW,338,0.0,0.0,43,0.00,,,0.00,WUHU216HW,2013-04-18 03:49:00,
2013-04-17 20:54:00,64.2,41.1,30.20,NNW,338,0.0,0.0,42,0.00,,,0.00,WUHU216HW,2013-04-18 03:54:00,
2013-04-17 20:59:00,64.4,41.2,30.20,NNW,338,0.0,0.0,43,0.00,,,0.00,WUHU216HW,2013-04-18 03:59:00,
2013-04-17 21:01:00,64.4,41.2,30.20,NNW,338,0.0,0.0,43,0.00,,,0.00,WUHU216HW,2013-04-18 04:01:00,
2013-04-17 21:02:00,64.5,41.4,30.20,NNW,338,0.0,0.0,43,0.00,,,0.00,WUHU216HW,2013-04-18 04:02:00,
2013-04-17 21:04:00,64.5,41.4,30.20,NNW,338,0.0,0.0,43,0.00,,,0.00,WUHU216HW,2013-04-18 04:04:00,
2013-04-17 21:09:00,64.2,39.9,30.20,NNW,338,0.0,0.0,41,0.00,,,0.00,WUHU216HW,2013-04-18 04:09:00,
2013-04-17 21:14:00,63.6,38.9,30.20,NNW,338,0.0,0.0,40,0.00,,,0.00,WUHU216HW,2013-04-18 04:14:00,
2013-04-17 21:19:00,63.1,38.4,30.20,SSW,203,0.0,0.0,40,0.00,,,0.00,WUHU216HW,2013-04-18 04:19:00,
2013-04-17 21:24:00,62.4,38.3,30.21,South,180,0.0,0.0,41,0.00,,,0.00,WUHU216HW,2013-04-18 04:24:00,
2013-04-17 21:29:00,62.4,38.3,30.21,SSE,158,0.0,0.0,41,0.00,,,0.00,WUHU216HW,2013-04-18 04:29:00,
2013-04-17 21:34:00,61.8,39.0,30.21,SSE,158,0.0,0.0,43,0.00,,,0.00,WUHU216HW,2013-04-18 04:34:00,
2013-04-17 21:39:00,61.5,39.2,30.21,SSE,158,0.0,0.0,44,0.00,,,0.00,WUHU216HW,2013-04-18 04:39:00,
2013-04-17 21:44:00,61.1,38.9,30.21,SSE,158,0.0,0.0,44,0.00,,,0.00,WUHU216HW,2013-04-18 04:44:00,
2013-04-17 21:50:00,60.8,39.2,30.22,SSE,158,0.0,0.0,45,0.00,,,0.00,WUHU216HW,2013-04-18 04:50:00,
2013-04-17 21:55:00,60.4,38.8,30.22,SSE,158,0.0,0.0,45,0.00,,,0.00,WUHU216HW,2013-04-18 04:55:00,
2013-04-17 22:00:00,60.2,38.7,30.22,SSE,158,0.0,0.0,45,0.00,,,0.00,WUHU216HW,2013-04-18 05:00:00,
2013-04-17 22:05:00,59.9,38.3,30.22,SSE,158,0.0,0.0,45,0.00,,,0.00,WUHU216HW,2013-04-18 05:05:00,
2013-04-17 22:10:00,59.7,38.8,30.22,SSE,158,0.0,0.0,46,0.00,,,0.00,WUHU216HW,2013-04-18 05:10:00,
2013-04-17 22:15:00,59.5,38.0,30.22,SSE,158,0.0,0.0,45,0.00,,,0.00,WUHU216HW,2013-04-18 05:15:00,
2013-04-17 22:20:00,59.1,37.7,30.22,SSE,158,0.0,0.0,45,0.00,,,0.00,WUHU216HW,2013-04-18 05:20:00,
2013-04-17 22:25:00,58.8,37.9,30.22,SSE,158,0.0,0.0,46,0.00,,,0.00,WUHU216HW,2013-04-18 05:25:00,
2013-04-17 22:30:00,58.8,37.9,30.21,SSE,158,0.0,0.0,46,0.00,,,0.00,WUHU216HW,2013-04-18 05:30:00,
2013-04-17 22:35:00,58.8,37.9,30.21,SSE,158,0.0,0.0,46,0.00,,,0.00,WUHU216HW,2013-04-18 05:35:00,
2013-04-17 22:40:00,58.6,37.8,30.21,SSE,158,0.0,0.0,46,0.00,,,0.00,WUHU216HW,2013-04-18 05:40:00,
2013-04-17 22:45:00,58.4,37.6,30.21,SSE,158,0.0,0.0,46,0.00,,,0.00,WUHU216HW,2013-04-18 05:45:00,
2013-04-17 22:50:00,58.2,38.0,30.21,SSE,158,0.0,0.0,47,0.00,,,0.00,WUHU216HW,2013-04-18 05:50:00,
2013-04-17 22:55:00,58.1,37.9,30.21,SSE,158,0.0,0.0,47,0.00,,,0.00,WUHU216HW,2013-04-18 05:55:00,
2013-04-17 23:00:00,57.9,37.7,30.21,SSE,158,0.0,0.0,47,0.00,,,0.00,WUHU216HW,2013-04-18 06:00:00,
2013-04-17 23:05:00,57.7,38.1,30.21,SSE,158,0.0,0.0,48,0.00,,,0.00,WUHU216HW,2013-04-18 06:05:00,
2013-04-17 23:10:00,57.3,37.8,30.21,SSE,158,0.0,0.0,48,0.00,,,0.00,WUHU216HW,2013-04-18 06:10:00,
2013-04-17 23:15:00,57.3,37.8,30.21,SSE,158,0.0,0.0,49,0.00,,,0.00,WUHU216HW,2013-04-18 06:15:00,
2013-04-17 23:21:00,57.0,38.0,30.21,SSE,158,0.0,0.0,49,0.00,,,0.00,WUHU216HW,2013-04-18 06:21:00,
2013-04-17 23:26:00,57.0,38.0,30.21,SSE,158,0.0,0.0,49,0.00,,,0.00,WUHU216HW,2013-04-18 06:26:00,
2013-04-17 23:31:00,57.0,38.0,30.21,SSE,158,0.0,0.0,49,0.00,,,0.00,WUHU216HW,2013-04-18 06:31:00,
2013-04-17 23:36:00,56.8,37.9,30.21,SSE,158,0.0,0.0,49,0.00,,,0.00,WUHU216HW,2013-04-18 06:36:00,
2013-04-17 23:41:00,56.8,37.9,30.21,SSE,158,0.0,0.0,49,0.00,,,0.00,WUHU216HW,2013-04-18 06:41:00,
2013-04-17 23:46:00,56.4,37.5,30.21,SSE,158,0.0,0.0,49,0.00,,,0.00,WUHU216HW,2013-04-18 06:46:00,
2013-04-17 23:51:00,56.4,38.1,30.21,SSE,158,0.0,0.0,50,0.00,,,0.00,WUHU216HW,2013-04-18 06:51:00,
2013-04-17 23:56:00,56.1,37.7,30.21,SSE,158,0.0,0.0,50,0.00,,,0.00,WUHU216HW,2013-04-18 06:56:00,